GW1261 Weather Reports


time (UTC)temp
F
wind
direction
speed
knots
gust
knots
rain 1hr
in
rain 24hr
in
rain mn
in
humidity
%
barometer
mb
20260504070114 94 246 0.0 0.0 0.00 0.00 0.00 54 976.3
20260504050502 89 350 0.9 2.6 0.00 0.00 0.00 61 978.6
20260504045959 90 283 0.0 0.9 0.00 0.00 0.00 62 978.5
20260504045455 90 69 2.6 4.3 0.00 0.00 0.00 62 978.6
20260504044951 91 332 0.9 0.9 0.00 0.00 0.00 62 978.7
20260504044449 90 153 1.7 2.6 0.00 0.00 0.00 63 978.6
20260504043946 91 205 0.0 0.9 0.00 0.00 0.00 65 978.9
20260504043443 89 221 0.0 0.0 0.00 0.00 0.00 65 978.9
20260504042940 88 162 0.0 1.7 0.00 0.00 0.00 66 978.9
20260504042436 88 42 1.7 2.6 0.00 0.00 0.00 65 979.1
20260504041933 88 320 0.0 1.7 0.00 0.00 0.00 66 979.0
20260504041429 87 169 0.0 6.1 0.00 0.00 0.00 67 979.1
20260504040925 88 312 0.9 0.9 0.00 0.00 0.00 67 978.9
20260504040424 88 260 0.0 0.9 0.00 0.00 0.00 70 978.9
20260504035919 86 98 1.7 2.6 0.00 0.00 0.00 70 979.1
20260504035417 86 77 2.6 5.2 0.00 0.00 0.00 69 979.1
20260504034914 87 137 0.0 0.0 0.00 0.00 0.00 71 979.2
20260504034412 86 358 0.0 4.3 0.00 0.00 0.00 74 979.2
20260504033908 86 5 1.7 2.6 0.00 0.00 0.00 71 979.5
20260504033406 85 94 0.9 2.6 0.00 0.00 0.00 73 979.5
20260504032902 85 26 2.6 4.3 0.00 0.00 0.00 72 979.4
20260504032359 85 47 0.9 0.9 0.00 0.00 0.00 72 979.3
20260504031855 84 268 0.0 1.7 0.00 0.00 0.00 73 979.5
20260504031353 85 37 0.9 2.6 0.00 0.00 0.00 72 979.5
20260504030849 84 66 1.7 4.3 0.00 0.00 0.00 73 979.4
20260504030347 86 80 0.0 0.9 0.00 0.00 0.00 72 979.6
20260504025842 86 175 0.0 0.0 0.00 0.00 0.00 73 979.4
20260504025340 85 212 0.0 0.9 0.00 0.00 0.00 74 979.6
20260504024836 83 165 0.0 5.2 0.00 0.00 0.00 74 979.7
20260504024333 85 204 0.0 0.9 0.00 0.00 0.00 75 979.7
20260504023829 85 62 2.6 2.6 0.00 0.00 0.00 72 979.8
20260504023326 85 155 0.0 1.7 0.00 0.00 0.00 74 979.6
20260504022822 85 183 0.0 0.9 0.00 0.00 0.00 74 979.8
20260504022319 85 210 0.0 0.0 0.00 0.00 0.00 76 979.5
20260504021816 84 328 0.9 1.7 0.00 0.00 0.00 75 979.4
20260504021314 83 222 0.0 0.0 0.00 0.00 0.00 77 979.4
20260504020810 82 92 0.9 1.7 0.00 0.00 0.00 79 979.6
20260504020307 82 23 0.0 0.0 0.00 0.00 0.00 81 979.3
20260504015802 82 258 0.0 0.9 0.00 0.00 0.00 80 979.5
20260504015259 82 311 0.0 0.9 0.00 0.00 0.00 79 979.5
20260504014755 81 258 0.9 0.9 0.00 0.00 0.00 80 979.3
20260504014251 80 251 0.0 0.0 0.00 0.00 0.00 82 979.1
20260504013749 80 254 0.0 0.0 0.00 0.00 0.00 80 979.1
20260504013247 81 268 0.9 0.9 0.00 0.00 0.00 82 978.9
20260504012743 80 297 0.0 0.0 0.00 0.00 0.00 85 978.8
20260504012241 80 300 0.0 0.9 0.00 0.00 0.00 84 979.0
20260504011737 80 219 0.0 0.9 0.00 0.00 0.00 84 979.1
20260504011235 79 150 0.0 0.0 0.00 0.00 0.00 83 979.1
20260504010731 78 144 0.0 0.0 0.00 0.00 0.00 86 979.0
20260504010226 77 227 0.0 0.0 0.00 0.00 0.00 89 979.1
20260504005723 76 225 0.0 0.9 0.00 0.00 0.00 90 978.8
20260504005220 75 217 0.9 0.9 0.00 0.00 0.00 93 978.7
20260504004718 75 219 0.0 0.9 0.00 0.00 0.00 92 978.7
20260504004215 74 211 0.0 0.0 0.00 0.00 0.00 94 978.6
20260504003712 73 219 0.0 0.0 0.00 0.00 0.00 94 978.6
20260504003208 73 219 0.0 0.0 0.00 0.00 0.00 94 978.6
20260504002705 73 219 0.0 0.0 0.00 0.00 0.00 95 978.5
20260504002202 72 219 0.0 0.0 0.00 0.00 0.00 95 978.3
20260504001700 72 219 0.0 0.0 0.00 0.00 0.00 96 978.2
20260504001157 72 219 0.0 0.0 0.00 0.00 0.00 97 978.4
20260504000653 71 219 0.0 0.0 0.00 0.00 0.00 98 978.4
20260504000151 70 212 0.0 0.0 0.00 0.00 0.00 98 978.1
20260503235649 70 212 0.0 0.0 0.00 0.00 0.00 99 978.1
20260503235145 70 212 0.0 0.0 0.00 0.00 0.00 99 978.3
20260503234643 70 212 0.0 0.0 0.00 0.00 0.00 99 978.4
20260503234141 70 212 0.0 0.0 0.00 0.00 0.00 99 978.2
20260503233638 70 213 0.0 0.0 0.00 0.00 0.00 99 978.0
20260503233133 70 213 0.0 0.0 0.00 0.00 0.00 99 978.0
20260503232630 70 213 0.0 0.0 0.00 0.00 0.00 99 978.0
20260503232128 70 213 0.0 0.0 0.00 0.00 0.00 99 978.1
20260503231626 70 213 0.0 0.0 0.00 0.00 0.00 99 978.1
20260503231122 69 213 0.0 0.0 0.00 0.00 0.00 99 977.9
20260503230619 69 213 0.0 0.0 0.00 0.00 0.00 99 977.9
20260503230116 69 213 0.0 0.0 0.00 0.00 0.00 99 977.8
20260503225614 69 213 0.0 0.0 0.00 0.00 0.00 99 977.7
20260503225113 69 213 0.0 0.0 0.00 0.00 0.00 99 977.8
20260503224611 69 213 0.0 0.0 0.00 0.00 0.00 99 977.8
20260503224109 69 213 0.0 0.0 0.00 0.00 0.00 99 977.8
20260503223607 69 213 0.0 0.0 0.00 0.00 0.00 99 977.5
20260503223102 69 213 0.0 0.0 0.00 0.00 0.00 99 977.3
20260503222600 69 213 0.0 0.0 0.00 0.00 0.00 99 977.3
20260503222058 69 213 0.0 0.0 0.00 0.00 0.00 99 977.2
20260503221556 69 214 0.0 0.0 0.00 0.00 0.00 99 977.6
20260503221053 69 211 0.0 0.0 0.00 0.00 0.00 99 977.3
20260503220549 69 203 0.0 0.0 0.00 0.00 0.00 99 976.9
20260503220047 69 193 0.0 0.0 0.00 0.00 0.00 99 977.1
20260503215543 69 196 0.0 0.0 0.00 0.00 0.00 99 976.8
20260503215040 69 280 0.0 0.0 0.00 0.00 0.00 99 976.9
20260503214538 69 242 0.0 0.0 0.00 0.00 0.00 99 976.6
20260503214035 69 242 0.0 0.0 0.00 0.00 0.00 99 976.6
20260503213533 69 247 0.0 0.0 0.00 0.00 0.00 99 976.4
20260503213030 69 257 0.0 0.0 0.00 0.00 0.00 99 976.5
20260503212527 69 234 0.0 0.0 0.00 0.00 0.00 99 976.5
20260503212025 69 252 0.0 0.0 0.00 0.00 0.00 99 976.7
20260503211521 70 233 0.0 0.0 0.00 0.00 0.00 99 976.4
20260503211016 70 233 0.0 0.0 0.00 0.00 0.00 99 976.2
20260503210514 70 234 0.0 0.0 0.00 0.00 0.00 99 976.5
20260503210010 70 234 0.0 0.0 0.00 0.00 0.00 99 976.4
20260503205506 70 233 0.0 0.0 0.00 0.00 0.00 99 976.6
20260503205002 70 234 0.0 0.0 0.00 0.00 0.00 99 976.5
20260503204500 70 231 0.0 0.0 0.00 0.00 0.00 99 976.3
20260503203956 70 229 0.0 0.0 0.00 0.00 0.00 99 976.2
20260503203454 70 229 0.0 0.0 0.00 0.00 0.00 99 976.4
20260503202950 70 242 0.0 0.0 0.00 0.00 0.00 99 976.5
20260503202449 70 259 0.0 0.0 0.00 0.00 0.00 99 976.2
20260503201947 70 229 0.0 0.0 0.00 0.00 0.00 99 976.2
20260503201444 70 225 0.0 0.0 0.00 0.00 0.00 99 976.3
20260503200941 70 225 0.0 0.0 0.00 0.00 0.00 99 976.4
20260503200438 70 228 0.0 0.0 0.00 0.00 0.00 99 976.3
20260503195934 70 221 0.0 0.0 0.00 0.00 0.00 99 976.4
20260503195432 70 221 0.0 0.0 0.00 0.00 0.00 99 976.3
20260503194928 70 221 0.0 0.0 0.00 0.00 0.00 99 976.5
20260503194425 70 221 0.0 0.0 0.00 0.00 0.00 99 976.6
20260503193920 70 221 0.0 0.0 0.00 0.00 0.00 99 976.7
20260503193416 70 221 0.0 0.0 0.00 0.00 0.00 99 976.3
20260503192912 70 221 0.0 0.0 0.00 0.00 0.00 99 976.2
20260503192409 70 231 0.0 0.0 0.00 0.00 0.00 99 976.5
20260503191904 70 221 0.0 0.0 0.00 0.00 0.00 99 976.7
20260503191402 70 221 0.0 0.0 0.00 0.00 0.00 99 976.4
20260503190858 70 221 0.0 0.0 0.00 0.00 0.00 99 976.6
20260503190355 70 221 0.0 0.0 0.00 0.00 0.00 99 976.5
20260503185852 71 221 0.0 0.0 0.00 0.00 0.00 99 976.4
20260503185349 71 223 0.0 0.0 0.00 0.00 0.00 99 976.7
20260503184848 71 221 0.0 0.0 0.00 0.00 0.00 99 976.5
20260503184345 71 221 0.0 0.0 0.00 0.00 0.00 99 976.8
20260503183840 71 221 0.0 0.0 0.00 0.00 0.00 99 976.8
20260503183338 71 221 0.0 0.0 0.00 0.00 0.00 99 976.7
20260503182835 71 221 0.0 0.0 0.00 0.00 0.00 99 976.8
20260503182334 71 221 0.0 0.0 0.00 0.00 0.00 99 976.9
20260503181831 71 221 0.0 0.0 0.00 0.00 0.00 99 976.7
20260503181328 71 221 0.0 0.0 0.00 0.00 0.00 99 976.8
20260503180824 71 221 0.0 0.0 0.00 0.00 0.00 99 977.0
20260503180323 71 221 0.0 0.0 0.00 0.00 0.00 99 976.8
20260503175818 71 221 0.0 0.0 0.00 0.00 0.00 99 976.9
20260503175317 72 221 0.0 0.0 0.00 0.00 0.00 99 977.0
20260503174812 72 221 0.0 0.0 0.00 0.00 0.00 99 977.1
20260503174311 72 221 0.0 0.0 0.00 0.00 0.00 99 977.0
20260503173806 72 221 0.0 0.0 0.00 0.00 0.00 99 977.0
20260503173302 72 221 0.0 0.0 0.00 0.00 0.00 98 976.9
20260503172759 72 221 0.0 0.0 0.00 0.00 0.00 98 976.9
20260503172256 72 216 0.0 0.0 0.00 0.00 0.00 98 977.0
20260503171752 72 215 0.0 0.0 0.00 0.00 0.00 98 977.1
20260503171249 72 215 0.0 0.0 0.00 0.00 0.00 98 976.9
20260503170746 72 215 0.0 0.0 0.00 0.00 0.00 98 976.9
20260503170243 72 214 0.0 0.0 0.00 0.00 0.00 98 977.0
20260503160205 72 243 0.0 0.0 0.00 0.12 0.12 97 977.2
20260503150635 73 136 0.0 0.0 0.00 0.12 0.12 96 976.9
20260503150131 73 233 0.0 0.0 0.00 0.12 0.12 96 976.6
20260503131025 74 232 0.0 0.0 0.00 0.12 0.12 96 974.8
20260503130522 74 239 0.0 0.9 0.00 0.12 0.12 96 974.9
20260503110413 74 224 0.0 0.0 0.00 0.12 0.12 94 973.3
20260503090304 96 225 0.0 0.0 0.00 0.00 0.00 52 972.5
20260503081231 91 220 0.0 0.0 0.00 0.00 0.00 57 973.3
20260503080726 91 220 0.0 0.0 0.00 0.00 0.00 59 973.1
20260503080224 91 220 0.0 0.0 0.00 0.00 0.00 58 973.4
20260503072700 93 224 0.0 0.0 0.00 0.00 0.00 58 973.9
20260503072157 93 203 0.0 0.0 0.00 0.00 0.00 53 974.0
20260503071654 95 203 0.0 0.0 0.00 0.00 0.00 51 973.9